{"data":{"norad_id":67440,"intl_designator":"2026-007F","name":"HULIANWANG DIGUI-142","alt_names":[],"object_type":"PAYLOAD","status":"ACTIVE","operator":null,"country":"PRC","launch_date":"2026-01-13","launch_site_code":"WSC","launch_vehicle":null,"mission":null,"orbit_class":"UNKNOWN","rcs_meters":null,"size_class":null,"mass_kg":null,"dimensions":null,"purposes":[],"wikipedia_slug":null,"has_3d_model":false,"image_url":null,"decayed_at":null,"tle_current":{"epoch":"2026-09-20T22:01:28.701120Z","epoch_age_seconds":60551,"freshness":"FRESH","line1":"1 67440U 26007F   26263.91769330 -.00000097  00000+0  58039-4 0  9998","line2":"2 67440  50.0108 102.4783 0000396  32.3400 327.7497 13.29330544 33528","mean_motion":13.29330544,"eccentricity":3.96e-5,"inclination_deg":50.0108,"raan_deg":102.4783,"arg_perigee_deg":32.34,"mean_anomaly_deg":327.7497,"bstar":5.8039e-5,"rev_number":3352,"period_min":108.32520222299,"perigee_km":1148.9913319086,"apogee_km":1149.5875040809,"semimajor_km":7527.4264179948,"source":"CELESTRAK","updated_at":"2026-09-21T09:00:16.634037Z"}}}